O3B FM5 1 39188U 13031A 21016.53587905 -.00000027 00000-0 00000-0 0 9999 2 39188 0.0595 20.1651 0002869 262.4492 77.3481 5.00115848138104 O3B FM4 1 39189U 13031B 21016.60165560 -.00000027 00000-0 00000-0 0 9997 2 39189 0.0452 353.6357 0004386 326.7167 39.6099 5.00115779138113 O3B FM2 1 39190U 13031C 21016.65391465 -.00000027 00000-0 00000-0 0 9999 2 39190 0.0451 346.9338 0007008 347.6995 25.3267 5.00115630138185 O3B PFM 1 39191U 13031D 21016.50759200 -.00000027 00000-0 00000-0 0 9999 2 39191 0.0526 14.1210 0003215 277.9075 67.9318 5.00115578137967 O3B FM3 1 40079U 14038A 21016.58861283 -.00000027 00000-0 00000-0 0 9997 2 40079 0.0485 2.0946 0002065 235.1724 122.7076 5.00115561114103 O3B FM7 1 40080U 14038B 21016.73499260 -.00000027 00000-0 00000-0 0 9998 2 40080 0.0505 357.3516 0004309 311.8314 50.7732 5.00115675118948 O3B FM6 1 40081U 14038C 21016.56121299 -.00000027 00000-0 00000-0 0 9994 2 40081 0.0475 1.7032 0002762 292.7395 65.5230 5.00115803118899 O3B FM8 1 40082U 14038D 21016.61503460 -.00000027 00000-0 00000-0 0 9995 2 40082 0.0454 358.7670 0002603 297.7062 63.4946 5.00115298119014 O3B FM10 1 40348U 14083A 21016.44151487 -.00000027 00000-0 00000-0 0 9999 2 40348 0.0476 12.4753 0002599 282.6935 64.7986 5.00115670110951 O3B FM11 1 40349U 14083B 21016.65457773 -.00000027 00000-0 00000-0 0 9990 2 40349 0.0521 10.5969 0003342 284.7075 64.6554 5.00115759110976 O3B FM12 1 40350U 14083C 21016.72213776 -.00000027 00000-0 00000-0 0 9993 2 40350 0.0512 9.9411 0002799 288.6016 61.4235 5.00115652110989 O3B FM9 1 40351U 14083D 21016.70830752 -.00000027 00000-0 00000-0 0 9991 2 40351 0.0533 10.5016 0002682 284.1167 65.3482 5.00115201111147 DIAMOND RED 1 42783U 17036U 21016.80585460 .00001083 00000-0 48348-4 0 9990 2 42783 97.2731 70.0646 0011760 5.1232 355.0124 15.23393921198226 DIAMOND GREEN 1 42785U 17036W 21017.13334792 .00001077 00000-0 48090-4 0 9996 2 42785 97.2733 70.4238 0011653 4.6431 355.4912 15.23393187198264 DIAMOND BLUE 1 42786U 17036X 21016.80387715 .00001060 00000-0 47373-4 0 9998 2 42786 97.2732 70.0987 0011537 6.1793 353.9584 15.23392731198295 LEO VANTAGE 1 1 43113U 18004C 21017.14089494 -.00000040 00000-0 42955-5 0 9990 2 43113 99.3435 74.9397 0047607 197.6483 162.3016 13.78879974151502 O3B FM15 1 43231U 18024A 21016.57503307 -.00000027 00000-0 00000-0 0 9998 2 43231 0.0446 14.6698 0002947 277.2438 68.0496 5.00115477 52097 O3B FM16 1 43232U 18024B 21016.02865554 -.00000027 00000-0 00000-0 0 9994 2 43232 0.0416 18.6977 0002980 273.0968 68.1681 5.00115477 51982 O3B FM14 1 43233U 18024C 21016.66825017 -.00000027 00000-0 00000-0 0 9995 2 43233 0.0403 19.4842 0003113 275.3192 65.1587 5.00115892 52010 O3B FM13 1 43234U 18024D 21016.68185878 -.00000027 00000-0 00000-0 0 9992 2 43234 0.0686 18.1076 0005140 250.3472 91.4808 5.00115740 52149 O3B FM20 1 44112U 19020A 21016.69446817 -.00000027 00000-0 00000-0 0 9999 2 44112 0.0471 11.8476 0003297 277.5192 70.5920 5.00115627 32642 O3B FM19 1 44113U 19020B 21011.68460623 -.00000022 00000-0 00000-0 0 9990 2 44113 0.0755 31.8327 0003469 233.1078 95.0160 5.00115609 32241 O3B FM17 1 44114U 19020C 21016.60164695 -.00000027 00000-0 00000-0 0 9993 2 44114 0.0277 357.1259 0003060 287.9660 74.8686 5.00116366 32586 O3B FM18 1 44115U 19020D 21016.54856158 -.00000027 00000-0 00000-0 0 9999 2 44115 0.0476 12.1418 0002849 281.4502 66.3725 5.00115537 32715 SALSAT 1 46495U 20068K 21016.90889582 .00000805 00000-0 63734-4 0 9993 2 46495 97.6798 315.4371 0015964 224.7219 135.2721 15.03316824 16564